TimeICT,TemperatureF,Dew PointF,Humidity,Sea Level PressureIn,VisibilityMPH,Wind Direction,Wind SpeedMPH,Gust SpeedMPH,PrecipitationIn,Events,Conditions,WindDirDegrees,DateUTC
12:00 AM,77.0,69.8,78,29.89,5.0,ENE,6.9,-,N/A,,Mostly Cloudy,60,2013-12-02 17:00:00
12:30 AM,77.0,69.8,78,29.89,5.0,ENE,5.8,-,N/A,,Mostly Cloudy,70,2013-12-02 17:30:00
1:00 AM,77,71,78,29.84,5,Calm,Calm,,,,Mist,,2013-12-02 18:00:00
1:00 AM,77.0,69.8,78,29.86,5.0,NE,6.9,-,N/A,,Mostly Cloudy,50,2013-12-02 18:00:00
1:30 AM,77.0,69.8,78,29.86,5.0,ENE,8.1,-,N/A,,Mostly Cloudy,60,2013-12-02 18:30:00
2:00 AM,77.0,69.8,78,29.86,5.0,ENE,8.1,-,N/A,,Mostly Cloudy,60,2013-12-02 19:00:00
2:30 AM,77.0,69.8,78,29.83,5.0,NE,6.9,-,N/A,,Mostly Cloudy,50,2013-12-02 19:30:00
3:00 AM,77.0,69.8,78,29.83,5.0,ENE,6.9,-,N/A,,Mostly Cloudy,70,2013-12-02 20:00:00
3:30 AM,77.0,69.8,78,29.83,5.0,ENE,5.8,-,N/A,,Mostly Cloudy,60,2013-12-02 20:30:00
4:00 AM,77,72,79,29.78,5,Calm,Calm,,,,Mist,,2013-12-02 21:00:00
4:00 AM,77.0,69.8,78,29.80,5.0,NE,5.8,-,N/A,,Mostly Cloudy,50,2013-12-02 21:00:00
4:30 AM,77.0,69.8,78,29.80,5.0,East,5.8,-,N/A,,Mostly Cloudy,80,2013-12-02 21:30:00
5:00 AM,77.0,69.8,78,29.83,5.0,ENE,5.8,-,N/A,,Mostly Cloudy,70,2013-12-02 22:00:00
5:30 AM,77.0,69.8,78,29.83,5.0,ENE,4.6,-,N/A,,Mostly Cloudy,60,2013-12-02 22:30:00
6:00 AM,77.0,69.8,78,29.83,5.0,ENE,4.6,-,N/A,,Mostly Cloudy,60,2013-12-02 23:00:00
6:30 AM,77.0,69.8,78,29.83,5.0,ENE,6.9,-,N/A,,Mostly Cloudy,60,2013-12-02 23:30:00
7:00 AM,76,72,83,29.81,5,Calm,Calm,,,,Mist,,2013-12-03 00:00:00
7:00 AM,77.0,69.8,78,29.83,5.0,ENE,8.1,-,N/A,,Mostly Cloudy,60,2013-12-03 00:00:00
7:30 AM,78.8,69.8,74,29.83,5.0,ENE,8.1,-,N/A,,Mostly Cloudy,60,2013-12-03 00:30:00
8:00 AM,78.8,69.8,74,29.86,5.0,Variable,2.3,-,N/A,,Mostly Cloudy,0,2013-12-03 01:00:00
8:30 AM,78.8,69.8,74,29.86,5.0,NE,6.9,-,N/A,,Mostly Cloudy,50,2013-12-03 01:30:00
9:00 AM,80.6,69.8,70,29.86,5.0,ENE,8.1,-,N/A,,Mostly Cloudy,60,2013-12-03 02:00:00
10:00 AM,84,72,61,29.83,5,East,6.9,,,,Mist,100,2013-12-03 03:00:00
10:00 AM,84.2,71.6,66,29.86,5.0,NE,9.2,-,N/A,,Mostly Cloudy,40,2013-12-03 03:00:00
10:30 AM,84.2,71.6,66,29.86,5.0,Variable,6.9,-,N/A,,Mostly Cloudy,0,2013-12-03 03:30:00
11:00 AM,84.2,71.6,66,29.86,5.0,East,10.4,-,N/A,,Mostly Cloudy,80,2013-12-03 04:00:00
11:30 AM,86.0,71.6,62,29.83,5.0,ENE,8.1,-,N/A,,Mostly Cloudy,60,2013-12-03 04:30:00
12:00 PM,86.0,69.8,58,29.83,5.0,NNE,8.1,-,N/A,,Mostly Cloudy,30,2013-12-03 05:00:00
12:30 PM,86.0,69.8,58,29.80,5.0,NE,8.1,-,N/A,,Mostly Cloudy,40,2013-12-03 05:30:00
1:00 PM,87,72,52,29.81,5,NE,8.1,,,,Haze,50,2013-12-03 06:00:00
1:00 PM,86.0,71.6,62,29.80,5.0,NE,6.9,-,N/A,,Mostly Cloudy,50,2013-12-03 06:00:00
2:00 PM,84.2,71.6,66,29.77,5.0,ENE,9.2,-,N/A,,Mostly Cloudy,70,2013-12-03 07:00:00
2:30 PM,82.4,69.8,66,29.77,5.0,NE,5.8,-,N/A,,Mostly Cloudy,50,2013-12-03 07:30:00
3:00 PM,82.4,69.8,66,29.77,5.0,NE,9.2,-,N/A,,Mostly Cloudy,50,2013-12-03 08:00:00
3:30 PM,82.4,71.6,70,29.77,5.0,NE,6.9,-,N/A,,Mostly Cloudy,50,2013-12-03 08:30:00
4:00 PM,83,72,62,29.73,5,East,6.9,,,,Mist,80,2013-12-03 09:00:00
4:00 PM,82.4,71.6,70,29.77,5.0,NE,6.9,-,N/A,,Mostly Cloudy,40,2013-12-03 09:00:00
4:30 PM,80.6,71.6,74,29.77,5.0,NE,3.5,-,N/A,,Mostly Cloudy,40,2013-12-03 09:30:00
5:00 PM,80.6,69.8,70,29.77,5.0,NE,4.6,-,N/A,,Mostly Cloudy,50,2013-12-03 10:00:00
5:30 PM,80.6,68.0,65,29.77,5.0,ENE,6.9,-,N/A,,Mostly Cloudy,60,2013-12-03 10:30:00
6:00 PM,80.6,68.0,65,29.80,5.0,ENE,8.1,-,N/A,,Mostly Cloudy,60,2013-12-03 11:00:00
6:30 PM,80.6,68.0,65,29.80,5.0,NE,8.1,-,N/A,,Mostly Cloudy,50,2013-12-03 11:30:00
7:00 PM,81,70,61,29.77,6,East,10.4,,,,Scattered Clouds,80,2013-12-03 12:00:00
7:00 PM,80.6,68.0,65,29.80,5.0,ENE,5.8,-,N/A,,Mostly Cloudy,60,2013-12-03 12:00:00
7:30 PM,78.8,68.0,69,29.80,5.0,NE,5.8,-,N/A,,Mostly Cloudy,50,2013-12-03 12:30:00
8:00 PM,78.8,68.0,69,29.83,5.0,NE,5.8,-,N/A,,Mostly Cloudy,50,2013-12-03 13:00:00
8:30 PM,78.8,69.8,74,29.83,5.0,Variable,2.3,-,N/A,,Mostly Cloudy,0,2013-12-03 13:30:00
9:00 PM,78.8,68.0,69,29.83,5.0,NE,5.8,-,N/A,,Mostly Cloudy,50,2013-12-03 14:00:00
9:30 PM,78.8,68.0,69,29.86,5.0,NE,3.5,-,N/A,,Mostly Cloudy,40,2013-12-03 14:30:00
10:00 PM,79,70,68,29.83,6,Calm,Calm,,,,Scattered Clouds,,2013-12-03 15:00:00
10:00 PM,78.8,68.0,69,29.86,5.0,NE,3.5,-,N/A,,Mostly Cloudy,50,2013-12-03 15:00:00
10:30 PM,78.8,68.0,69,29.86,5.0,Variable,2.3,-,N/A,,Mostly Cloudy,0,2013-12-03 15:30:00
11:00 PM,78.8,68.0,69,29.83,5.0,Calm,Calm,-,N/A,,Mostly Cloudy,0,2013-12-03 16:00:00
11:30 PM,78.8,68.0,69,29.86,5.0,NE,3.5,-,N/A,,Mostly Cloudy,50,2013-12-03 16:30:00